WICK current weather conditions

sailwx.info

Wind from 050 at 14 knots

Air temperature 4.0° C
Visibility: greater than 5.4 NM
Dewpoint -1.0° C

Last reported at 2016-Feb-11 17:20 UTC.
Time now 2016-Feb-11 19:11 UTC

Location: N 58°27' W 003°05'.
View on Google Maps.

See reports from other nearby stations

  
Tides and Currents Weather Stations Pressure Air Temp Water Temp Dewpoint Dewpoint Depression Visibility Wind Speed Wind Dir Waves Ship Positions
date/time (UTC)wind fromknots sea level pressurealtimeterstation pressurevisibilityair tempwater tempwave heightnotes
2016-Feb-11 18:20 040 13 4.9 4.0
2016-Feb-11 17:50 050 16 5.4 4.0
2016-Feb-11 17:20 050 14 5.4 4.0
2016-Feb-11 16:50 050 14 5.4 4.0
2016-Feb-11 16:20 050 16 5.4 4.0 Showers in the vicinity.
2016-Feb-11 15:50 070 11 5.4 5.0 Showers in the vicinity.
2016-Feb-11 15:20 050 13 5.4 5.0 Showers in the vicinity.
2016-Feb-11 14:50 060 14 5.4 5.0 Showers in the vicinity.
2016-Feb-11 14:20 060 14 5.4 6.0 Showers in the vicinity.
2016-Feb-11 13:50 060 14 5.4 6.0 Showers in the vicinity.
2016-Feb-11 13:20 060 14 5.4 5.0 Showers in the vicinity.
2016-Feb-11 12:50 060 13 5.4 6.0 Showers in the vicinity.
2016-Feb-11 12:20 060 14 5.4 5.0 Showers in the vicinity.
2016-Feb-11 11:50 060 13 5.4 6.0 Showers in the vicinity.
2016-Feb-11 11:20 060 14 5.4 6.0 Showers in the vicinity.
2016-Feb-11 10:50 060 13 5.4 5.0 Showers in the vicinity.
2016-Feb-11 10:20 060 14 5.4 5.0 Showers in the vicinity.
2016-Feb-11 09:50 060 14 5.4 5.0 Showers in the vicinity.
2016-Feb-11 09:20 060 13 5.4 4.0 Showers in the vicinity.
2016-Feb-11 08:50 060 14 5.4 5.0 Showers in the vicinity.
2016-Feb-11 08:20 050 16 5.4 5.0 Showers in the vicinity.
2016-Feb-11 07:50 050 14 5.4 5.0 Showers in the vicinity.
2016-Feb-11 07:20 050 16 5.4 5.0 Light rain showers.
2016-Feb-11 06:50 060 15 5.4 5.0
2016-Feb-11 06:20 050 17 5.4 5.0
2016-Feb-11 05:50 040 14 5.4 5.0 Light rain.
2016-Feb-11 05:20 040 14 5.4 5.0
2016-Feb-11 04:50 050 15 5.4 5.0
2016-Feb-11 04:20 050 16 5.4 5.0
2016-Feb-11 03:50 040 16 5.4 5.0
2016-Feb-11 03:20 050 19 5.4 5.0
2016-Feb-11 02:50 050 19 5.4 5.0
2016-Feb-11 02:20 050 18 5.4 5.0
2016-Feb-11 01:50 040 16 3.8 5.0 Drizzle.
2016-Feb-11 01:20 040 17 5.4 6.0
2016-Feb-11 00:50 050 17 5.4 6.0
2016-Feb-11 00:20 050 17 5.4 6.0
2016-Feb-10 23:50 050 17 5.4 5.0
2016-Feb-10 23:20 040 15 5.4 5.0
2016-Feb-10 22:50 290 5 4.3 3.0 Rain.
2016-Feb-10 22:20 310 4 5.4 3.0
2016-Feb-10 21:50 300 8 3.2 4.0 Rain.
2016-Feb-10 21:20 310 13 5.4 4.0 Light rain.
2016-Feb-10 20:50 280 9 5.4 2.0
2016-Feb-10 20:20 280 9 5.4 2.0
2016-Feb-10 19:50 270 10 5.4 2.0 Showers in the vicinity.
2016-Feb-10 19:20 280 11 5.4 2.0 Showers in the vicinity.
2016-Feb-10 18:50 280 10 5.4 2.0
2016-Feb-10 18:20 270 9 2.0
2016-Feb-10 17:50 270 8 5.4 2.0
2016-Feb-10 17:20 290 9 5.4 2.0
2016-Feb-10 16:50 290 10 5.4 3.0
2016-Feb-10 16:20 290 11 5.4 4.0
2016-Feb-10 15:50 290 12 5.4 5.0
2016-Feb-10 15:20 300 14 5.4 5.0
2016-Feb-10 14:50 300 15 5.4 5.0
2016-Feb-10 14:20 290 13 5.4 6.0
2016-Feb-10 13:50 300 16 5.4 5.0
2016-Feb-10 13:20 300 15 5.4 5.0 Showers in the vicinity.
2016-Feb-10 12:50 300 16 5.4 6.0 Showers in the vicinity.
2016-Feb-10 12:20 300 15 5.4 6.0 Showers in the vicinity.
2016-Feb-10 11:50 300 12 5.4 5.0 Showers in the vicinity.
2016-Feb-10 11:20 300 10 5.4 5.0 Showers in the vicinity.
2016-Feb-10 10:50 290 10 5.4 4.0 Showers in the vicinity.
2016-Feb-10 10:20 280 10 5.4 4.0 Showers in the vicinity.
2016-Feb-10 09:50 280 9 5.4 3.0 Showers in the vicinity.
2016-Feb-10 09:20 290 12 5.4 3.0 Showers in the vicinity.
2016-Feb-10 08:50 290 8 5.4 2.0 Showers in the vicinity.
2016-Feb-10 08:20 300 7 5.4 2.0 Showers in the vicinity.
2016-Feb-10 07:50 290 6 5.4 2.0 Showers in the vicinity.
2016-Feb-10 07:20 290 5 5.4 2.0
2016-Feb-10 06:50 320 5 5.4 2.0
2016-Feb-10 06:20 300 13 5.4 2.0
2016-Feb-10 05:50 320 8 5.4 2.0
2016-Feb-10 05:20 310 14 5.4 2.0 Light rain.
2016-Feb-10 04:50 310 13 5.4 3.0
2016-Feb-10 04:20 300 8 5.4 3.0 Light rain.
2016-Feb-10 03:50 320 14 3.8 3.0 Light rain.
2016-Feb-10 03:20 320 11 5.4 3.0
2016-Feb-10 02:50 320 14 5.4 3.0
2016-Feb-10 02:20 320 12 5.4 3.0
2016-Feb-10 01:50 320 11 5.4 4.0
2016-Feb-10 01:20 320 8 5.4 3.0
2016-Feb-10 00:50 320 8 5.4 3.0
2016-Feb-10 00:20 310 8 5.4 3.0
2016-Feb-09 23:50 330 10 5.4 4.0
2016-Feb-09 23:20 340 11 5.4 4.0
2016-Feb-09 22:50 340 12 5.4 4.0
2016-Feb-09 22:20 330 11 5.4 4.0
2016-Feb-09 21:50 330 12 5.4 4.0
2016-Feb-09 21:20 340 13 5.4 5.0
2016-Feb-09 20:50 330 14 5.4 5.0
2016-Feb-09 20:20 340 15 5.4 5.0
2016-Feb-09 19:50 330 15 5.4 5.0
2016-Feb-09 19:20 340 18 5.4 5.0